Weather Service Report


124 
ASUS41 KRLX 201910
RWRRLX
West Virginia Regional Weather Roundup
National Weather Service Charleston WV
300 PM EDT SUN APR 20 2014

Note: "fair" indicates few or no clouds below 12,000 feet with no
significant weather and/or obstructions to visibility.

WVZ003-202000-
Northern Panhandle of West Virginia
  
CITY           SKY/WX    TMP DP  RH WIND       PRES   REMARKS
WHEELING       SUNNY     68  23  18 SE9       30.24F                  
$$

WVZ009-202000-
Northwest West Virginia
  
CITY           SKY/WX    TMP DP  RH WIND       PRES   REMARKS
PARKERSBURG    SUNNY    N/A N/A N/A VRB7      30.24F                  
$$

WVZ006-202000-
Western West Virginia
  
CITY           SKY/WX    TMP DP  RH WIND       PRES   REMARKS
HUNTINGTON     SUNNY     75  29  18 NE8       30.20F                  
$$

WVZ015-202000-
West Central West Virginia
  
CITY           SKY/WX    TMP DP  RH WIND       PRES   REMARKS
CHARLESTON     SUNNY     75  21  13 VRB7      30.21F                  
$$

WVZ031-202000-
North Central West Virginia
  
CITY           SKY/WX    TMP DP  RH WIND       PRES   REMARKS
CLARKSBURG     SUNNY     71  21  15 CALM      30.23F                  
MORGANTOWN     MOSUNNY   72  20  14 SE9       30.26F                  
$$

WVZ035-042-045-202000-
South Central West Virginia
  
CITY           SKY/WX    TMP DP  RH WIND       PRES   REMARKS
BECKLEY        SUNNY     66  22  18 E10       30.26F                  
BLUEFIELD      SUNNY     69  24  18 SE9       30.26F                  
LEWISBURG      SUNNY     65  23  20 S3        30.27F                  
$$

WVZ047-202000-
Northern Mountains of West Virginia
  
CITY           SKY/WX    TMP DP  RH WIND       PRES   REMARKS
ELKINS         SUNNY     72  20  14 VRB6      30.25F                  
$$

WVZ052-202000-
Eastern Panhandle of West Virginia
  
CITY           SKY/WX    TMP DP  RH WIND       PRES   REMARKS
MARTINSBURG    SUNNY     64  33  31 VRB6      30.35F                  
PETERSBURG     SUNNY     71  34  25 S8        30.30F                  
$$

Return to Home page


Western Regional Climate Center, wrcc@dri.edu